Orbital Elements at Epoch 2459000.5 (2020-May-31.0) TDB
Reference: JPL 24 (heliocentric ecliptic J2000)
Element | Value | Uncertainty (1-sigma) | Units |
e | .2148488652922446 | 4.1655e-08 | |
a | 3.134670354221782 | 1.6251e-08 | au |
q | 2.461189985551994 | 1.3287e-07 | au |
i | 25.79817840543427 | 5.0661e-06 | deg |
node | 208.9020064750451 | 8.4558e-06 | deg |
peri | 244.8520073136303 | 1.338e-05 | deg |
M | 306.816132108107 | 1.0163e-05 | deg |
tp | 2459299.977128317214 (2021-Mar-26.47712832) | 5.751e-05 | TDB |
period | 2027.1516621045 5.55 | 1.5764e-05 4.316e-08 | d yr |
n | .1775890806444466 | 1.381e-09 | deg/d |
Q | 3.80815072289157 | 1.9743e-08 | au |
|
| | Orbit Determination Parameters
Additional Information
|